Regional Weather Roundup
Issued by NWS

Home | Current Version | Previous Version | Text Only | Print | Product List | Glossary On
Versions: 1 2 3 4 5 6 7 8 9 10 11 12 13 14 15 16 17 18 19 20 21 22 23 24 25 26 27 28
000
ASUS42 KKEY 292210
RWRKEY

FLORIDA REGIONAL WEATHER ROUNDUP FOR THE FLORIDA KEYS
NATIONAL WEATHER SERVICE KEY WEST FLORIDA
600 PM EDT FRI APR 29 2016

...SOUTH FLORIDA AND THE KEYS...

CITY           SKY/WX    TMP DP  RH WIND       PRES   REMARKS
FORT MYERS     MOSUNNY   82  73  74 SW10      29.90S
SW REGIONAL AP MOSUNNY   83  71  67 SW12      29.90F
NAPLES         MOSUNNY   83  71  67 W9        29.91S
MIAMI          MOSUNNY   82  67  60 SE9       29.93F
WEST KENDALL   SUNNY     83  66  56 SE13      29.92F
HOMESTEAD      SUNNY     81  69  66 E10       29.93F
MARATHON       SUNNY     82  71  69 E8        29.92S
BOCA CHICA NAS PTSUNNY   82  70  66 E10       29.92S
KEY WEST INTL  MOSUNNY   82  72  71 E9        29.92S

...INTERNATIONAL WEATHER...

CITY           SKY/WX    TMP DP  RH WIND       PRES   REMARKS
NASSAU BAHAMAS MOSUNNY   77  66  69 NE9       29.96S
CANCUN MEXICO  MOSUNNY   84  75  74 SE15      29.84F HX  92
COZUMEL MEXICO PTSUNNY   81  73  78 E16       29.83F

ADJACENT COASTAL WATERS...

STATION/POSITION TIME  SKY/WX   TEMP    WIND        PRES    WAVE
                                AIR SEA DIR/SP/G            HT/PER
                 (UTC)          (F)     (DEG/KT/KT) (MB)    (FT/S)
PULASKI SHOAL LI 2200            79      90/  8/  9 1013.1S
SAND KEY         2150            79     130/ 11/ 13 1013.4F
SOMBRERO KEY     NOT AVBL
LONG KEY         2100            80 83  120/  9/ 10 1014.0F
MOLASSES REEF    2200            79 80  120/  8/  8 1014.0F
FOWEY ROCKS      NOT AVBL

$$




USA.gov is the U.S. government's official web portal to all federal, state and local government web resources and services.